1496379600.8,31933,18.88,74096.0,7.81,-32.19,-32.69,0,*7F
1496379602.06,31934,18.88,74104.3,7.81,-31.11,-31.51,0,*7B
1496379603.32,31935,18.88,74110.8,7.81,-31.85,-32.45,0,*71
1496379604.56,31936,18.88,74108.0,7.77,-32.39,-32.97,0,*70
1496379605.81,31937,18.88,74108.8,7.77,-33.77,-34.41,0,*77
1496379607.06,31938,18.88,74116.8,7.73,-32.85,-33.37,0,*76
1496379608.25,31939,18.88,74120.5,7.75,-31.33,-31.79,0,*77
1496379609.5,31940,18.88,74122.3,7.75,-31.39,-31.95,0,*71
1496379610.75,31941,18.88,74112.3,7.73,-30.77,-31.29,0,*7A
1496379611.98,31942,18.88,74104.5,7.75,-30.33,-30.77,0,*75
1496379613.2,31943,18.88,74106.0,7.75,-29.95,-30.55,0,*70
1496379614.4,31944,18.88,74098.5,7.75,-30.83,-31.33,0,*79
1496379615.63,31945,18.88,74098.8,7.75,-30.51,-30.83,0,*7D
1496379616.88,31946,18.88,74104.8,7.77,-31.05,-31.61,0,*71
1496379618.13,31947,18.88,74104.5,7.77,-31.45,-31.95,0,*7F
1496379619.36,31948,18.88,74102.8,7.79,-31.85,-32.39,0,*77
1496379620.64,31949,18.88,74098.3,7.77,-32.07,-32.79,0,*75
1496379621.9,31950,18.88,74096.8,7.77,-33.03,-33.49,0,*7A
1496379623.15,31951,18.88,74098.5,7.73,-35.07,-35.77,0,*76
1496379624.39,31952,18.88,74090.8,7.67,-33.61,-34.19,0,*7F
1496379625.64,31953,18.88,74086.8,7.67,-30.77,-31.11,0,*77
1496379626.86,31954,18.88,74098.0,7.71,-30.05,-30.45,0,*72
1496379628.08,31955,18.88,74098.3,7.67,-31.29,-31.85,0,*76
1496379629.35,31956,18.88,74094.8,7.73,-31.85,-32.29,0,*73
1496379630.58,31957,18.88,74106.8,7.71,-30.77,-31.29,0,*7F
1496379631.8,31958,18.88,74106.0,7.71,-30.73,-31.05,0,*7A
1496379632.99,31959,18.88,74110.0,7.71,-31.29,-31.67,0,*71
1496379634.19,31960,18.88,74106.0,7.71,-31.45,-32.01,0,*72
1496379635.42,31961,18.88,74114.3,7.71,-33.83,-34.53,0,*7A
1496379636.64,31962,18.88,74118.5,7.67,-34.01,-34.59,0,*79
1496379637.85,31963,18.88,74120.5,7.63,-34.07,-34.77,0,*76
1496379639.09,31964,18.88,74100.3,7.59,-33.89,-34.35,0,*7F
1496379640.3,31965,18.88,74088.0,7.59,-32.01,-32.51,0,*7B
1496379641.53,31966,18.88,74092.3,7.59,-30.95,-31.45,0,*71
1496379642.79,31967,18.88,74092.0,7.59,-30.77,-31.23,0,*7C
1496379643.99,31968,18.88,74094.8,7.63,-29.83,-30.27,0,*7C
1496379645.19,31969,18.88,74096.3,7.63,-30.11,-30.45,0,*7A
1496379646.42,31970,18.88,74106.8,7.63,-29.67,-30.01,0,*7B
1496379647.66,31971,18.88,74108.0,7.65,-30.11,-30.51,0,*70
1496379648.91,31972,18.88,74096.0,7.65,-32.13,-32.97,0,*7B
1496379650.16,31973,18.88,74098.3,7.63,-31.23,-31.61,0,*76
1496379651.39,31974,18.88,74098.0,7.63,-31.23,-31.79,0,*78
1496379652.61,31975,18.88,74102.5,7.63,-31.01,-31.39,0,*7D
1496379653.85,31976,18.88,74108.8,7.65,-30.51,-31.01,0,*77
1496379655.08,31977,18.88,74108.0,7.63,-31.61,-32.23,0,*71
1496379656.3,31978,18.88,74088.8,7.63,-32.23,-32.79,0,*74
1496379657.51,31979,18.88,74098.5,7.63,-30.55,-31.05,0,*7E
1496379658.76,31980,18.88,74098.3,7.63,-30.17,-30.55,0,*7A
1496379659.99,31981,18.88,74102.0,7.63,-29.45,-30.01,0,*75
1496379661.22,31982,18.88,74102.0,7.65,-30.11,-30.45,0,*79
1496379662.44,31983,18.88,74104.8,7.67,-29.23,-29.73,0,*7E
1496379663.63,31984,18.88,74108.3,7.67,-29.23,-29.79,0,*73
1496379664.86,31985,18.88,74100.5,7.71,-30.23,-30.61,0,*7C
1496379666.09,31986,18.88,74102.0,7.71,-32.01,-32.75,0,*7A
1496379667.31,31987,18.88,74104.5,7.71,-32.91,-33.77,0,*71
1496379668.56,31988,18.88,74108.5,7.71,-33.09,-33.73,0,*7A
1496379669.8,31989,18.88,74102.5,7.63,-32.97,-33.73,0,*7E
1496379671.02,31990,18.88,74082.5,7.63,-31.79,-32.29,0,*7B
1496379672.3,31991,18.88,74090.8,7.61,-30.01,-30.51,0,*7B
1496379673.53,31992,18.88,74092.0,7.61,-29.83,-30.23,0,*7F
1496379674.76,31993,18.88,74094.8,7.65,-29.23,-29.67,0,*78
1496379675.98,31994,18.88,74088.5,7.67,-30.51,-31.01,0,*79
1496379677.17,31995,18.88,74078.3,7.67,-31.01,-31.45,0,*7C
1496379678.4,31996,18.88,74090.8,7.67,-31.33,-31.91,0,*77
1496379679.59,31997,18.88,74092.5,7.67,-31.67,-32.23,0,*7D
1496379680.84,31998,18.88,74094.3,7.63,-31.51,-31.95,0,*7D
1496379682.1,31999,18.88,74100.0,7.65,-30.17,-30.67,0,*75
1496379683.35,32000,18.88,74098.8,7.65,-30.83,-31.23,0,*73
1496379684.61,32001,18.88,74098.5,7.65,-31.23,-31.79,0,*76
1496379685.85,32002,18.88,74096.5,7.65,-31.17,-31.57,0,*7E
1496379687.11,32003,18.88,74098.8,7.65,-29.83,-30.17,0,*7E
1496379688.38,32004,18.88,74100.0,7.65,-30.01,-30.51,0,*79
1496379689.62,32005,18.88,74100.3,7.71,-30.55,-30.95,0,*74
1496379690.87,32006,18.88,74098.5,7.67,-32.07,-32.79,0,*75
1496379692.09,32007,18.88,74102.3,7.67,-33.31,-34.07,0,*7F
1496379693.32,32008,18.88,74098.8,7.63,-34.07,-34.83,0,*7A
1496379694.57,32009,18.88,74088.8,7.59,-32.19,-32.85,0,*7B
1496379695.83,32010,18.88,74094.3,7.59,-31.11,-31.61,0,*71
1496379697.07,32011,18.88,74088.3,7.59,-30.55,-30.95,0,*7B
1496379698.3,32012,18.88,74094.5,7.59,-30.89,-31.45,0,*75
1496379699.58,32013,18.88,74096.8,7.61,-30.39,-30.89,0,*75
1496379700.86,32014,18.88,74104.3,7.61,-29.35,-29.73,0,*7B
1496379702.08,32015,18.88,74100.3,7.63,-29.13,-29.61,0,*7F
1496379703.31,32016,18.88,74106.0,7.65,-29.83,-30.27,0,*79
1496379704.55,32017,18.88,74102.8,7.65,-30.55,-31.01,0,*7E
1496379705.79,32018,18.88,74102.0,7.65,-30.51,-31.05,0,*71
1496379707.0,32019,18.88,74100.0,7.67,-30.23,-30.67,0,*72
1496379708.22,32020,18.88,74104.5,7.67,-30.05,-30.45,0,*7C
1496379709.44,32021,18.88,74106.0,7.67,-29.39,-29.79,0,*7D
1496379710.66,32022,18.88,74102.3,7.71,-29.67,-30.05,0,*71
1496379711.91,32023,18.88,74110.8,7.71,-30.01,-30.39,0,*77
1496379713.16,32024,18.88,74108.8,7.73,-29.39,-29.83,0,*78
1496379714.44,32025,18.88,74110.5,7.73,-29.01,-29.51,0,*7D
1496379715.69,32026,18.88,74112.0,7.73,-30.23,-30.73,0,*7E
1496379716.94,32027,18.88,74100.8,7.73,-31.45,-31.95,0,*77
1496379718.22,32028,18.88,74098.3,7.73,-32.19,-32.75,0,*7F
1496379719.47,32029,18.88,74094.0,7.73,-31.45,-31.95,0,*79
1496379720.7,32030,18.88,74092.5,7.71,-30.73,-31.05,0,*7E
1496379721.92,32031,18.88,74098.3,7.71,-30.33,-30.61,0,*78
1496379723.18,32032,18.88,74096.5,7.73,-29.67,-30.17,0,*71
1496379724.4,32033,18.88,74098.3,7.75,-29.07,-29.51,0,*7A
1496379725.62,32034,18.88,74102.0,7.75,-28.91,-29.23,0,*76
1496379726.87,32035,18.88,74104.5,7.79,-28.59,-28.91,0,*77
1496379728.12,32036,18.88,74108.8,7.79,-28.59,-28.91,0,*74
1496379729.35,32037,18.88,74110.0,7.81,-28.69,-29.17,0,*7E
1496379730.59,32038,18.88,74108.0,7.83,-28.69,-29.01,0,*74
1496379731.84,32039,18.88,74108.0,7.83,-28.97,-29.39,0,*7F
1496379733.11,32040,18.88,74110.8,7.83,-28.79,-29.39,0,*71
1496379734.39,32041,18.88,74094.8,7.83,-29.51,-30.05,0,*7C
1496379735.64,32042,18.88,74086.8,7.87,-30.55,-31.01,0,*72
1496379736.91,32043,18.88,74084.3,7.87,-29.67,-30.17,0,*7C
1496379738.13,32044,18.88,74096.8,7.85,-29.29,-29.79,0,*73
1496379739.38,32045,18.88,74100.8,7.87,-29.29,-29.61,0,*79
1496379740.65,32046,18.88,74100.3,7.87,-30.89,-31.45,0,*77
1496379741.88,32047,18.88,74100.0,7.87,-29.95,-30.33,0,*73
1496379743.14,32048,18.88,74102.3,7.87,-29.13,-29.61,0,*7D
1496379744.34,32049,18.88,74098.5,7.89,-29.45,-29.79,0,*78
1496379745.6,32050,18.88,74102.5,7.89,-29.39,-29.73,0,*71
1496379746.83,32051,18.88,74096.0,7.89,-29.89,-30.27,0,*72
1496379748.06,32052,18.88,74096.5,7.93,-28.79,-29.07,0,*7E
1496379749.31,32053,18.88,74096.0,7.95,-28.97,-29.35,0,*78
1496379750.59,32054,18.88,74102.5,7.95,-28.79,-29.35,0,*7F
1496379751.85,32055,18.88,74098.5,7.95,-29.39,-29.83,0,*76
1496379753.11,32056,18.88,74100.3,7.97,-28.79,-29.17,0,*7F
1496379754.36,32057,18.88,74102.5,7.97,-28.63,-29.01,0,*72
1496379755.63,32058,18.88,74098.0,7.99,-28.75,-29.17,0,*73
1496379756.9,32059,18.88,74102.8,7.99,-28.59,-29.01,0,*7B
1496379758.14,32060,18.88,74102.5,8.01,-28.75,-29.13,0,*72
1496379759.38,32061,18.88,74100.5,8.01,-28.75,-29.13,0,*73
1496379760.64,32062,18.88,74106.5,8.03,-28.85,-29.17,0,*79
1496379761.87,32063,18.88,74104.8,8.03,-29.23,-29.83,0,*78
1496379763.09,32064,18.88,74100.8,8.05,-29.07,-29.39,0,*7E
1496379764.37,32065,18.88,74106.3,8.03,-29.39,-29.73,0,*7A
1496379765.59,32066,18.88,74104.0,8.05,-29.23,-29.51,0,*74
1496379766.83,32067,18.88,74108.8,8.05,-29.39,-29.83,0,*71
1496379768.06,32068,18.88,74108.5,8.09,-29.79,-30.17,0,*73
1496379769.31,32069,18.88,74110.3,8.07,-29.67,-30.17,0,*73
1496379770.56,32070,18.88,74108.0,8.07,-29.29,-29.61,0,*78
1496379771.8,32071,18.88,74106.3,8.07,-29.17,-29.61,0,*74
1496379773.04,32072,18.88,74104.8,8.07,-29.29,-29.61,0,*7A
1496379774.31,32073,18.88,74110.3,8.07,-28.59,-29.01,0,*7B
1496379775.57,32074,18.88,74110.8,8.09,-28.59,-28.91,0,*7A
1496379776.79,32075,18.88,74104.0,8.11,-29.23,-29.61,0,*70
1496379778.01,32076,18.88,74104.3,8.11,-29.23,-29.45,0,*75
1496379779.28,32077,18.88,74114.5,8.11,-28.43,-28.75,0,*71
1496379780.52,32078,18.88,74114.3,8.11,-28.69,-29.13,0,*77
1496379781.74,32079,18.88,74112.5,8.15,-28.47,-28.85,0,*70
1496379782.95,32080,18.88,74112.3,8.15,-28.75,-29.07,0,*7C
1496379784.15,32081,18.88,74116.8,8.15,-28.53,-28.85,0,*72
1496379785.38,32082,18.88,74108.5,8.17,-28.97,-29.45,0,*76
1496379786.67,32083,18.88,74108.5,8.17,-29.35,-30.01,0,*76
1496379787.94,32084,18.88,74108.0,8.17,-30.01,-30.39,0,*75
1496379789.23,32085,18.88,74100.5,8.17,-29.89,-30.17,0,*70
1496379790.45,32086,18.88,74108.8,8.19,-28.69,-29.17,0,*7A
1496379791.69,32087,18.88,74110.5,8.17,-28.31,-28.79,0,*71
1496379792.91,32088,18.88,74112.5,8.19,-28.15,-28.47,0,*7B
1496379794.19,32089,18.88,74110.0,8.21,-28.91,-29.39,0,*75
1496379795.41,32090,18.88,74110.0,8.23,-28.59,-28.97,0,*7E
1496379796.62,32091,18.88,74114.3,8.23,-28.75,-29.07,0,*79
1496379797.83,32092,18.88,74110.5,8.23,-29.07,-29.39,0,*73
1496379799.08,32093,18.88,74110.5,8.23,-29.13,-29.39,0,*77
1496379800.32,32094,18.88,74114.0,8.23,-28.91,-29.39,0,*7B
1496379801.59,32095,18.88,74110.8,8.25,-29.01,-29.17,0,*78
1496379802.84,32096,18.88,74118.5,8.29,-28.63,-28.97,0,*7B
1496379804.09,32097,18.88,74114.5,8.25,-29.73,-30.23,0,*70
1496379805.34,32098,18.88,74118.0,8.27,-29.17,-29.51,0,*72
1496379806.62,32099,18.88,74116.3,8.29,-29.35,-29.89,0,*78
1496379807.88,32100,18.88,74114.8,8.27,-30.17,-30.77,0,*76
1496379809.1,32101,18.88,74114.8,8.27,-30.33,-30.95,0,*7D
1496379810.35,32102,18.88,74102.5,8.25,-29.39,-29.95,0,*76
1496379811.57,32103,18.88,74096.3,8.25,-29.79,-30.11,0,*77
1496379812.82,32104,18.88,74104.0,8.25,-29.17,-29.57,0,*72
1496379814.04,32105,18.88,74110.5,8.27,-28.97,-29.35,0,*7C
1496379815.26,32106,18.88,74114.3,8.27,-29.17,-29.57,0,*72
1496379816.5,32107,18.88,74114.3,8.27,-29.29,-29.73,0,*78
1496379817.76,32108,18.88,74110.0,8.29,-29.17,-29.57,0,*72
1496379818.98,32109,18.88,74112.5,8.29,-29.67,-30.23,0,*7F
1496379820.23,32110,18.88,74116.3,8.31,-29.13,-29.51,0,*70
1496379821.5,32111,18.88,74116.8,8.29,-28.79,-29.29,0,*7A
1496379822.76,32112,18.88,74118.8,8.29,-28.85,-29.35,0,*77
1496379823.95,32113,18.88,74114.5,8.31,-29.45,-29.95,0,*78
1496379825.15,32114,18.88,74118.0,8.31,-29.67,-29.95,0,*7F
1496379826.43,32115,18.88,74122.8,8.29,-29.73,-30.05,0,*73
1496379827.62,32116,18.88,74120.8,8.31,-29.67,-30.27,0,*7C
1496379828.85,32117,18.88,74124.5,8.33,-30.27,-31.01,0,*76
1496379830.07,32118,18.88,74120.5,8.31,-32.13,-32.79,0,*72
1496379831.31,32119,18.88,74108.0,8.29,-32.69,-33.37,0,*7C
1496379832.53,32120,18.88,74096.8,8.27,-30.73,-31.29,0,*7C
1496379833.77,32121,18.88,74100.5,8.25,-30.61,-31.17,0,*71
1496379835.02,32122,18.88,74112.5,8.25,-29.23,-29.73,0,*77
1496379836.29,32123,18.88,74110.5,8.25,-28.59,-29.01,0,*7F
1496379837.51,32124,18.88,74114.0,8.27,-28.15,-28.47,0,*71
1496379838.73,32125,18.88,74106.8,8.27,-28.15,-28.63,0,*76
1496379839.98,32126,18.88,74110.0,8.29,-28.63,-28.97,0,*71
1496379841.23,32127,18.88,74114.5,8.29,-28.69,-29.01,0,*74
1496379842.45,32128,18.88,74108.5,8.31,-30.27,-30.55,0,*78
1496379843.73,32129,18.88,74108.3,8.29,-29.13,-29.51,0,*73
1496379844.95,32130,18.88,74112.3,8.31,-29.13,-29.67,0,*77
1496379846.17,32131,18.88,74112.0,8.31,-29.13,-29.67,0,*76
1496379847.4,32132,18.88,74108.8,8.31,-30.17,-30.83,0,*7B
1496379848.62,32133,18.88,74114.5,8.31,-30.17,-30.27,0,*74
1496379849.85,32134,18.88,74110.0,8.33,-29.79,-30.33,0,*74
1496379851.12,32135,18.88,74110.3,8.33,-31.91,-32.45,0,*79
1496379852.37,32136,18.88,74108.0,8.29,-31.23,-31.79,0,*74
1496379853.66,32137,18.88,74108.5,8.29,-30.17,-30.77,0,*7C
1496379854.91,32138,18.88,74110.3,8.29,-29.89,-30.23,0,*7D
1496379856.16,32139,18.88,74110.0,8.29,-29.73,-30.23,0,*79
1496379857.42,32140,18.88,74108.8,8.29,-29.73,-30.33,0,*76
1496379858.67,32141,18.88,74108.3,8.29,-29.67,-30.17,0,*74
1496379859.93,32142,18.88,74110.5,8.29,-29.45,-30.01,0,*70
1496379861.22,32143,18.88,74110.0,8.29,-29.51,-29.89,0,*7C
1496379862.44,32144,18.88,74108.5,8.31,-29.13,-29.61,0,*72
1496379863.69,32145,18.88,74112.3,8.29,-29.17,-29.67,0,*78
1496379864.89,32146,18.88,74114.5,8.31,-29.79,-30.33,0,*73
1496379866.13,32147,18.88,74110.8,8.31,-30.01,-30.51,0,*71
1496379867.35,32148,18.88,74112.0,8.31,-32.23,-32.85,0,*77
1496379868.63,32149,18.88,74112.0,8.29,-31.95,-32.45,0,*7D
1496379869.88,32150,18.88,74108.0,8.25,-32.23,-32.85,0,*7B
1496379871.12,32151,18.88,74110.8,8.25,-32.23,-32.97,0,*79
1496379872.38,32152,18.88,74114.3,8.21,-32.45,-32.97,0,*7E
1496379873.66,32153,18.88,74108.8,8.21,-31.23,-31.95,0,*7D
1496379874.91,32154,18.88,74114.0,8.21,-32.63,-33.37,0,*77
1496379876.13,32155,18.88,74104.0,8.19,-34.47,-35.01,0,*7E
1496379877.34,32156,18.88,74098.3,8.15,-33.31,-33.83,0,*7B
1496379878.6,32157,18.88,74104.3,8.09,-31.57,-32.07,0,*78
1496379879.85,32158,18.88,74100.3,8.11,-32.39,-33.09,0,*7A
1496379881.07,32159,18.88,74100.3,8.09,-33.89,-34.47,0,*75
1496379882.35,32160,18.88,74098.5,8.07,-31.91,-32.45,0,*7E
1496379883.61,32161,18.88,74100.3,8.07,-30.01,-30.39,0,*7E
1496379884.83,32162,18.88,74106.8,8.09,-30.51,-31.05,0,*78
1496379886.09,32163,18.88,74100.3,8.09,-30.51,-30.89,0,*7C
1496379887.3,32164,18.88,74098.8,8.09,-29.83,-30.33,0,*7D
1496379888.5,32165,18.88,74090.3,8.09,-30.67,-31.17,0,*79
1496379889.74,32166,18.88,74084.0,8.09,-30.17,-30.67,0,*7B
1496379890.97,32167,18.88,74088.8,8.09,-29.57,-30.01,0,*76
1496379892.19,32168,18.88,74094.8,8.09,-29.29,-29.61,0,*7E
1496379893.39,32169,18.88,74098.5,8.15,-29.23,-29.57,0,*7D
1496379894.61,32170,18.88,74100.8,8.15,-29.23,-29.73,0,*73
1496379895.86,32171,18.88,74102.8,8.15,-29.01,-29.51,0,*72
1496379897.06,32172,18.88,74102.5,8.15,-29.23,-29.67,0,*74
1496379898.29,32173,18.88,74106.8,8.19,-28.85,-29.17,0,*73
1496379899.54,32174,18.88,74104.8,8.17,-28.69,-29.17,0,*78
1496379900.79,32175,18.88,74104.0,8.19,-29.17,-29.73,0,*7D
1496379902.04,32176,18.88,74098.5,8.19,-29.17,-29.73,0,*7E
1496379903.24,32177,18.88,74100.5,8.19,-29.83,-30.23,0,*7F
1496379904.49,32178,18.88,74098.8,8.23,-28.91,-29.29,0,*79
1496379905.68,32179,18.88,74100.8,8.23,-29.79,-30.33,0,*7C
1496379906.94,32180,18.88,74096.0,8.23,-30.01,-30.61,0,*7A
1496379908.13,32181,18.88,74098.5,8.23,-30.67,-31.33,0,*7D
1496379909.35,32182,18.88,74100.3,8.21,-30.45,-31.17,0,*7A
1496379910.6,32183,18.88,74104.8,8.21,-29.13,-29.67,0,*7E
1496379911.87,32184,18.88,74104.5,8.21,-28.91,-29.13,0,*71
1496379913.06,32185,18.88,74104.5,8.23,-29.79,-30.27,0,*7A
1496379914.26,32186,18.88,74114.5,8.23,-29.79,-30.27,0,*79
1496379915.51,32187,18.88,74118.0,8.25,-29.51,-29.95,0,*75
1496379916.74,32188,18.88,74116.3,8.25,-29.07,-29.57,0,*77
1496379917.98,32189,18.88,74114.3,8.25,-30.55,-31.33,0,*72
1496379919.17,32190,18.88,74112.8,8.23,-32.39,-33.15,0,*72
1496379920.42,32191,18.88,74106.8,8.21,-33.21,-33.89,0,*7C
1496379921.7,32192,18.88,74104.0,8.17,-34.53,-35.41,0,*7A
1496379922.93,32193,18.88,74094.3,8.11,-35.13,-35.77,0,*7D
1496379924.17,32194,18.88,74092.0,8.07,-34.89,-35.65,0,*7C
1496379925.39,32195,18.88,74094.8,8.05,-34.13,-35.07,0,*78
1496379926.65,32196,18.88,74096.3,8.03,-31.11,-31.79,0,*77
1496379927.87,32197,18.88,74100.3,8.05,-29.89,-30.27,0,*72
1496379929.15,32198,18.88,74104.3,8.07,-29.01,-29.35,0,*74
1496379930.4,32199,18.88,74110.5,8.05,-29.17,-29.51,0,*72
1496379931.62,32200,18.88,74118.8,8.09,-29.13,-29.61,0,*7A
1496379932.87,32201,18.88,74112.0,8.09,-30.89,-31.57,0,*7C
1496379934.12,32202,18.88,74100.5,8.07,-32.79,-33.67,0,*7D
1496379935.37,32203,18.88,74104.0,8.07,-33.77,-34.47,0,*76
1496379936.59,32204,18.88,74100.5,8.05,-31.29,-31.85,0,*71
1496379937.78,32205,18.88,74104.8,8.05,-31.67,-32.35,0,*72
1496379938.98,32206,18.88,74102.5,8.01,-33.15,-33.83,0,*7E
1496379940.22,32207,18.88,74098.3,8.01,-30.51,-30.95,0,*78
1496379941.42,32208,18.88,74096.8,8.01,-33.83,-34.41,0,*76
1496379942.64,32209,18.88,74104.0,7.99,-33.37,-33.95,0,*78
1496379943.89,32210,18.88,74106.0,7.95,-31.95,-32.57,0,*79
1496379945.11,32211,18.88,74104.5,7.95,-32.35,-32.91,0,*7B
1496379946.36,32212,18.88,74104.0,7.95,-33.61,-34.13,0,*74
1496379947.61,32213,18.88,74106.3,7.93,-33.61,-34.35,0,*77
1496379948.86,32214,18.88,74106.5,7.89,-33.73,-34.35,0,*78
1496379950.1,32215,18.88,74110.8,7.85,-34.59,-35.41,0,*78
1496379951.31,32216,18.88,74112.0,7.81,-35.47,-36.01,0,*76
1496379952.53,32217,18.88,74114.8,7.81,-35.23,-36.07,0,*73
1496379953.76,32218,18.88,74106.5,7.77,-34.13,-34.77,0,*72
1496379955.03,32219,18.88,74108.5,7.73,-34.35,-35.07,0,*75
1496379956.3,32220,18.88,74110.0,7.73,-32.45,-33.09,0,*76
1496379957.52,32221,18.88,74108.0,7.73,-33.21,-33.83,0,*76
1496379958.77,32222,18.88,74108.5,7.71,-33.43,-33.73,0,*7C
1496379960.01,32223,18.88,74112.0,7.67,-33.09,-33.61,0,*77
1496379961.23,32224,18.88,74112.5,7.67,-33.09,-33.83,0,*7C
1496379962.48,32225,18.88,74114.5,7.67,-33.77,-34.53,0,*7E
1496379963.73,32226,18.88,74112.5,7.65,-33.67,-34.31,0,*7A
1496379964.95,32227,18.88,74114.3,7.63,-32.45,-33.15,0,*7D
1496379966.16,32228,18.88,74108.0,7.63,-31.51,-32.13,0,*73
1496379967.42,32229,18.88,74106.8,7.63,-32.07,-32.75,0,*72
1496379968.64,32230,18.88,74106.5,7.65,-31.17,-31.79,0,*71
1496379969.9,32231,18.88,74106.0,7.63,-31.57,-32.07,0,*78
1496379971.12,32232,18.88,74102.5,7.63,-32.45,-33.15,0,*79
1496379972.35,32233,18.88,74104.5,7.61,-32.69,-33.37,0,*74
1496379973.63,32234,18.88,74102.8,7.61,-35.07,-35.23,0,*7F
1496379974.85,32235,18.88,74108.0,7.59,-32.91,-33.61,0,*7D
1496379976.1,32236,18.88,74106.5,7.59,-33.09,-33.77,0,*79
1496379977.37,32237,18.88,74102.5,7.57,-32.97,-33.77,0,*70
1496379978.62,32238,18.88,74102.5,7.55,-32.97,-33.73,0,*79
1496379979.85,32239,18.88,74098.5,7.55,-32.97,-33.67,0,*7D
1496379981.06,32240,18.88,74098.3,7.55,-34.47,-35.17,0,*79
1496379982.29,32241,18.88,74096.8,7.51,-34.53,-35.01,0,*7E
1496379983.55,32242,18.88,74096.8,7.53,-31.57,-32.23,0,*79
1496379984.75,32243,18.88,74096.0,7.51,-31.05,-31.45,0,*7E
1496379985.97,32244,18.88,74102.8,7.51,-31.39,-32.13,0,*76
1496379987.23,32245,18.88,74104.5,7.53,-31.39,-31.79,0,*7A
1496379988.46,32246,18.88,74108.3,7.51,-30.95,-31.45,0,*73
1496379989.71,32247,18.88,74110.0,7.55,-31.51,-32.07,0,*7A
1496379990.96,32248,18.88,74088.8,7.51,-33.09,-33.77,0,*78
1496379992.19,32249,18.88,74090.3,7.51,-33.95,-34.53,0,*7D
1496379993.42,32250,18.88,74094.3,7.51,-34.35,-35.01,0,*7E
1496379994.67,32251,18.88,74094.8,7.47,-32.57,-33.09,0,*74
1496379995.92,32252,18.88,74088.0,7.49,-30.45,-30.95,0,*7E
1496379997.17,32253,18.88,74086.0,7.47,-30.45,-30.77,0,*7D
1496379998.37,32254,18.88,74084.5,7.51,-29.95,-30.45,0,*79
1496379999.63,32255,18.88,74090.8,7.53,-30.33,-30.89,0,*7E
1496380000.89,32256,18.88,74090.8,7.53,-30.11,-30.51,0,*78
1496380002.12,32257,18.88,74094.5,7.53,-29.67,-30.11,0,*74
1496380003.38,32258,18.88,74096.8,7.55,-30.17,-30.73,0,*76
1496380004.59,32259,18.88,74096.8,7.55,-30.45,-30.83,0,*7F
1496380005.81,32260,18.88,74096.8,7.57,-29.23,-29.79,0,*72
1496380007.07,32261,18.88,74100.5,7.59,-29.51,-30.05,0,*7B
1496380008.34,32262,18.88,74104.3,7.61,-30.55,-31.11,0,*7B
1496380009.59,32263,18.88,74104.0,7.61,-31.57,-32.01,0,*7B
1496380010.84,32264,18.88,74110.8,7.59,-30.73,-31.11,0,*72
1496380012.12,32265,18.88,74100.8,7.61,-29.89,-30.39,0,*7E
1496380013.4,32266,18.88,74100.3,7.61,-31.85,-32.45,0,*71
1496380014.63,32267,18.88,74104.8,7.59,-31.23,-31.67,0,*74
1496380015.91,32268,18.88,74110.8,7.61,-30.89,-31.23,0,*71
1496380017.19,32269,18.88,74116.5,7.61,-30.61,-31.11,0,*77
1496380018.44,32270,18.88,74118.8,7.61,-31.39,-32.01,0,*71
1496380019.72,32271,18.88,74100.5,7.61,-31.85,-32.45,0,*77
1496380020.97,32272,18.88,74100.0,7.59,-31.61,-32.19,0,*7C
1496380022.22,32273,18.88,74108.5,7.59,-33.09,-33.77,0,*78
1496380023.42,32274,18.88,74108.3,7.55,-32.91,-33.55,0,*73
1496380024.63,32275,18.88,74104.0,7.55,-34.41,-35.01,0,*7E
1496380025.86,32276,18.88,74096.8,7.55,-34.77,-35.41,0,*7C
1496380027.09,32277,18.88,74092.8,7.51,-35.01,-35.65,0,*7F
1496380028.37,32278,18.88,74102.0,7.47,-33.31,-33.77,0,*77
1496380029.61,32279,18.88,74092.5,7.47,-32.91,-33.61,0,*7A
1496380030.8,32280,18.88,74080.5,7.41,-32.91,-33.55,0,*7D
1496380031.99,32281,18.88,74094.3,7.41,-32.91,-33.55,0,*7C
1496380033.23,32282,18.88,74098.8,7.41,-31.95,-32.63,0,*7C
1496380034.46,32283,18.88,74104.5,7.43,-30.83,-31.33,0,*7F
1496380035.68,32284,18.88,74104.0,7.41,-30.77,-31.33,0,*71
1496380036.87,32285,18.88,74104.8,7.41,-33.21,-33.83,0,*79
1496380038.09,32286,18.88,74106.5,7.41,-33.09,-33.83,0,*70
1496380039.29,32287,18.88,74100.3,7.41,-33.83,-34.47,0,*7C
1496380040.55,32288,18.88,74106.5,7.39,-35.01,-35.83,0,*79
1496380041.81,32289,18.88,74098.0,7.35,-33.83,-34.53,0,*74
1496380043.03,32290,18.88,74100.3,7.33,-33.73,-34.41,0,*76
1496380044.26,32291,18.88,74104.0,7.33,-33.73,-34.41,0,*77
1496380045.51,32292,18.88,74104.8,7.29,-32.97,-33.73,0,*72
1496380046.73,32293,18.88,74104.8,7.29,-33.21,-33.77,0,*7B
1496380047.98,32294,18.88,74104.0,7.31,-33.61,-34.71,0,*70
1496380049.21,32295,18.88,74104.8,7.25,-34.95,-35.77,0,*7F
1496380050.44,32296,18.88,74108.5,7.25,-35.47,-36.25,0,*76
1496380051.69,32297,18.88,74102.3,7.19,-34.89,-35.53,0,*79
1496380052.94,32298,18.88,74110.5,7.15,-36.01,-36.79,0,*73
1496380054.17,32299,18.88,74108.0,7.13,-36.25,-37.15,0,*79
1496380055.39,32300,18.88,74104.3,7.11,-36.43,-37.27,0,*7B
1496380056.66,32301,18.88,74106.3,7.07,-35.41,-36.13,0,*7A
1496380057.93,32302,18.88,74104.3,7.07,-35.35,-36.13,0,*7A
1496380059.19,32303,18.88,74106.5,7.05,-34.53,-35.41,0,*7C
1496380060.44,32304,18.88,74118.5,7.03,-35.13,-35.95,0,*71
1496380061.66,32305,18.88,74100.0,6.99,-33.67,-34.25,0,*7D
1496380062.92,32306,18.88,74098.0,6.97,-34.65,-35.41,0,*76
1496380064.14,32307,18.88,74096.0,6.97,-34.77,-35.53,0,*77
1496380065.42,32308,18.88,74088.0,6.95,-32.79,-33.31,0,*70
1496380066.66,32309,18.88,74086.0,6.95,-30.51,-31.01,0,*78
1496380067.92,32310,18.88,74088.3,6.95,-30.27,-30.73,0,*75
1496380069.17,32311,18.88,74082.3,6.99,-30.05,-30.45,0,*7D
1496380070.42,32312,18.88,74088.0,7.03,-29.83,-30.05,0,*7E
1496380071.65,32313,18.88,74096.0,7.05,-29.89,-30.23,0,*77
1496380072.88,32314,18.88,74100.0,7.09,-29.61,-30.01,0,*7A
1496380074.13,32315,18.88,74100.3,7.11,-29.57,-30.05,0,*73
1496380075.39,32316,18.88,74094.0,7.13,-29.39,-29.89,0,*76
1496380076.62,32317,18.88,74096.8,7.13,-30.27,-30.73,0,*7D
1496380077.82,32318,18.88,74102.0,7.17,-30.67,-31.05,0,*72
1496380079.07,32319,18.88,74094.8,7.17,-30.39,-30.73,0,*78
1496380080.28,32320,18.88,74096.3,7.17,-29.67,-30.11,0,*75
1496380081.51,32321,18.88,74102.3,7.19,-29.45,-29.83,0,*79
1496380082.73,32322,18.88,74102.0,7.21,-28.97,-29.39,0,*7E
1496380083.95,32323,18.88,74100.3,7.21,-29.73,-30.11,0,*76
1496380085.21,32324,18.88,74100.0,7.25,-29.35,-30.01,0,*76
1496380086.48,32325,18.88,74104.0,7.27,-30.39,-30.95,0,*7C
1496380087.75,32326,18.88,74102.3,7.27,-30.39,-30.73,0,*77
1496380088.98,32327,18.88,74100.3,7.33,-30.23,-30.55,0,*7C
1496380090.18,32328,18.88,74092.3,7.29,-28.97,-29.45,0,*77
1496380091.41,32329,18.88,74102.3,7.31,-29.45,-29.95,0,*7C
1496380092.64,32330,18.88,74100.8,7.33,-29.35,-29.57,0,*7F
1496380093.92,32331,18.88,74102.0,7.35,-28.63,-29.01,0,*79
1496380095.2,32332,18.88,74098.5,7.35,-28.91,-29.35,0,*70
1496380096.41,32333,18.88,74106.5,7.37,-29.67,-29.95,0,*71
1496380097.61,32334,18.88,74102.5,7.41,-29.23,-29.57,0,*79
1496380098.82,32335,18.88,74104.0,7.41,-28.97,-29.39,0,*7E
1496380100.06,32336,18.88,74110.8,7.41,-28.75,-29.13,0,*79
1496380101.33,32337,18.88,74106.3,7.43,-28.79,-29.29,0,*7F
1496380102.58,32338,18.88,74110.0,7.43,-28.53,-28.91,0,*7A
1496380103.8,32339,18.88,74112.0,7.49,-28.85,-29.23,0,*72